Location: Harrisburg
(40.2740°N, 76.8850°W)
Time: 21:12:57
(UTC-05:00)

Hubble Space Telescope - Visible Passes

Search period start: 10 December 2017 00:00
Search period end: 20 December 2017 00:00
Orbit: 538 x 541 km, 28.5° (Epoch: 09 December)

Date Brightness Start Highest point End Pass type
(mag) Time Alt. Az. Time Alt. Az. Time Alt. Az.
10 Dec 3.3 17:47:31 10° SSW 17:49:12 12° SSE 17:50:53 10° SE visible
10 Dec 3.6 19:27:07 10° SW 19:27:52 13° SSW 19:27:52 13° SSW visible
11 Dec 3.2 17:36:47 10° SSW 17:38:50 13° S 17:40:53 10° SE visible
11 Dec 3.3 19:16:49 10° SW 19:18:16 14° SSW 19:18:16 14° SSW visible
12 Dec 3.2 17:26:10 10° SSW 17:28:29 14° S 17:30:47 10° SE visible
12 Dec 3.2 19:06:34 10° SW 19:08:42 15° S 19:08:42 15° S visible
13 Dec 3.3 17:15:41 10° SSW 17:18:07 15° S 17:20:35 10° SE visible
13 Dec 3.2 18:56:24 10° SW 18:58:36 14° S 18:59:11 14° S visible
14 Dec 3.3 18:46:20 10° SW 18:48:15 13° S 18:49:44 11° SSE visible
15 Dec 3.5 18:36:27 10° SSW 18:37:53 12° SSW 18:39:18 10° S visible
16 Dec 3.8 18:27:24 10° SSW 18:27:30 10° SSW 18:27:37 10° SSW visible
